Content
SEND FEEDBACK

Daily
Averages
Monthly
Summary
United States of America

STANLEY, KENTUCKY


Home > North America > United States > Kentucky
Elevation: 400 feet     Latitude: 37 46N     Longitude: 087 09W

WEATHER
 
SELECT A DAY
Number of Records: 149,992;   Date Range: 1/1/95 - 8/28/14
 
SHARE

PRINT THIS DATA

[ ← Previous Day ]
WEATHER ALMANAC - JANUARY 23, 2013
[ Next Day → ]
[ °C ]   °F
Weather ElementAverageHighLow
Temperature29.8 °F41.9 °F (2:56 pm)18.1 °F (5:56 am)
Dewpoint16.8 °F23 °F (9:56 pm)10 °F (9:56 am)
Humidity60.5 %78 % (3:56 am)38 % (11:56 am)
Barometer30.28 in30.42 in (1:56 am)30.16 in (4:56 pm)
Wind Speed5.7 mph10.4 mph (11:56 am)
Weather ElementAverage
Visibility10 mi
Wind DirectionSSW (186.8 °)

Weather ElementTotal
Precipitation---
Heating Degree Days35 (Base 65)
Averaged from 22 records on January 23, 2013
WEATHER CONDITIONS BREAKOUT
WIND DIRECTION BREAKOUT
WEATHER BY HOUR - JANUARY 23, 2013
[ °C ]   °F
Local TimeTemperatureDewpointHumidityBarometerVisibilityWind DirectionWind SpeedGust SpeedPrecipitationEventsConditions
1:56 AM20.1 °F11.1 °F68 %30.42 in10.0 miCalmOvercast
2:56 AM20.1 °F11.1 °F68 %30.41 in10.0 miCalmClear
3:56 AM19.0 °F13.1 °F78 %30.40 in10.0 miCalmClear
4:56 AM19.0 °F12.0 °F74 %30.38 in10.0 miCalmClear
5:56 AM18.1 °F12.0 °F77 %30.39 in10.0 miSSE (160°)4.6 mphClear
6:56 AM18.1 °F12.0 °F77 %30.39 in10.0 miSouth (170°)4.6 mphClear
7:56 AM21.0 °F13.1 °F71 %30.38 in10.0 miSouth (170°)5.8 mphClear
9:56 AM29.1 °F10.0 °F45 %30.37 in10.0 miSouth (180°)8.1 mphClear
10:56 AM32.9 °F11.1 °F40 %30.33 in10.0 miSSW (210°)6.9 mphClear
11:56 AM36.9 °F13.1 °F38 %30.28 in10.0 miSSW (200°)10.4 mphClear
12:56 PM37.9 °F15.1 °F39 %30.23 in10.0 miSSW (210°)6.9 mphClear
1:56 PM39.9 °F17.1 °F40 %30.22 in10.0 miSW (220°)8.1 mphClear
2:56 PM41.9 °F19.0 °F40 %30.18 in10.0 miWSW (240°)8.1 mphClear
3:56 PM41.9 °F22.1 °F45 %30.17 in10.0 miSW (230°)8.1 mphClear
4:56 PM36.9 °F22.1 °F55 %30.16 in10.0 miCalmClear
5:56 PM34.9 °F21.0 °F57 %30.16 in10.0 miNW (310°)4.6 mphClear
6:56 PM31.1 °F22.1 °F69 %30.16 in10.0 miWest (280°)5.8 mphClear
7:56 PM31.1 °F22.1 °F69 %30.17 in10.0 miWest (280°)5.8 mphClear
8:56 PM32.0 °F22.1 °F67 %30.20 in10.0 miNW (310°)9.2 mphClear
9:56 PM31.1 °F23.0 °F72 %30.22 in10.0 miNW (310°)8.1 mphClear
10:56 PM31.1 °F23.0 °F72 %30.23 in10.0 miNW (310°)9.2 mphClear
11:56 PM31.1 °F22.1 °F69 %30.24 in10.0 miNW (320°)10.4 mphClear
Hourly data recorded from KOWB, located miles away from Stanley, Kentucky







STORIES FROM OUR PARTNERS